Weather History for Buckland, AK

Change the Weather History Date:

Saturday, October 19, 2013

  Actual Average (PASK) Record (PASK)
Temperature  
Mean Temperature 40 °F -  
Max Temperature 44 °F 21 °F 42 °F (2013)
Min Temperature 37 °F 13 °F -4 °F (2001)
Degree Days  
Heating Degree Days 24    
Moisture  
Dew Point 36 °F    
Average Humidity 81    
Maximum Humidity 87    
Minimum Humidity 76    
Precipitation  
Precipitation 0.02 in - - ()
Sea Level Pressure  
Sea Level Pressure 29.22 in    
Wind  
Wind Speed 12 mph (SE)    
Max Wind Speed 21 mph    
Max Gust Speed 28 mph    
Visibility 10 miles    
Events      
Averages and records for this station are not official NWS values.
T = Trace of Precipitation, MM = Missing Value Source: NWS Daily Summary

Daily Weather History Graph

Daily Weather History Graph

Search for Another Location

Airport:

Trip Planner

Search our weather history database for the weather conditions in past years. The results will help you decide how hot, cold, wet, or windy it might be!

Date:

Astronomy

Oct. 19, 2013 Rise Set
Actual Time 9:55 AM AKDT 7:01 PM AKDT
Civil Twilight 9:02 AM AKDT 7:54 PM AKDT
Nautical Twilight 8:02 AM AKDT 8:54 PM AKDT
Astronomical Twilight 7:03 AM AKDT 9:53 PM AKDT
Moon 6:59 PM AKDT (10/19) 11:17 AM AKDT (10/19)
Length of Visible Light 10h 52m
Length of Day
9h 05m
Full, 99% of the Moon is Illuminated
Oct 19
Full
Oct 26
Last Quarter
Nov 3
New
Nov 9
First Quarter
Nov 17
Full

Hourly Weather History & Observations

Time (AKDT) Temp. Windchill Dew Point Humidity Pressure Visibility Wind Dir Wind Speed Gust Speed Precip Events Conditions
12:16 AM 42.8 °F 37.0 °F 37.4 °F 81% 29.26 in 10.0 mi ESE 10.4 mph - N/A   Overcast
12:36 AM 42.8 °F 35.4 °F 37.4 °F 81% 29.26 in 10.0 mi ESE 15.0 mph 20.7 mph 0.01 in   Overcast
12:56 AM 41.0 °F 32.8 °F 37.4 °F 87% 29.26 in 10.0 mi ESE 16.1 mph 26.5 mph 0.01 in   Overcast
1:16 AM 41.0 °F 33.5 °F 37.4 °F 87% 29.26 in 10.0 mi SE 13.8 mph 24.2 mph N/A   Overcast
1:36 AM 41.0 °F 34.7 °F 37.4 °F 87% 29.26 in 10.0 mi SE 10.4 mph - N/A   Overcast
1:56 AM 41.0 °F 32.8 °F 37.4 °F 87% 29.25 in 10.0 mi ESE 16.1 mph 20.7 mph N/A   Overcast
2:16 AM 41.0 °F 33.5 °F 37.4 °F 87% 29.25 in 10.0 mi SE 13.8 mph - N/A   Overcast
2:36 AM 41.0 °F 33.5 °F 37.4 °F 87% 29.24 in 10.0 mi ESE 13.8 mph 21.9 mph N/A   Overcast
2:56 AM 41.0 °F 32.5 °F 37.4 °F 87% 29.23 in 10.0 mi ESE 17.3 mph 23.0 mph N/A   Overcast
3:16 AM 41.0 °F 31.6 °F 35.6 °F 81% 29.22 in 10.0 mi ESE 20.7 mph 25.3 mph N/A   Scattered Clouds
3:36 AM 41.0 °F 31.6 °F 35.6 °F 81% 29.22 in 10.0 mi ESE 20.7 mph 27.6 mph 0.01 in   Scattered Clouds
3:56 AM 42.8 °F 34.0 °F 35.6 °F 76% 29.22 in 10.0 mi East 20.7 mph 27.6 mph 0.01 in   Clear
4:16 AM 42.8 °F 34.8 °F 35.6 °F 76% 29.22 in 10.0 mi East 17.3 mph 25.3 mph N/A   Partly Cloudy
4:36 AM 42.8 °F 34.5 °F 35.6 °F 76% 29.21 in 10.0 mi East 18.4 mph 25.3 mph N/A   Mostly Cloudy
4:56 AM 42.8 °F 35.1 °F 35.6 °F 76% 29.21 in 10.0 mi East 16.1 mph 24.2 mph N/A   Mostly Cloudy
5:16 AM 42.8 °F 34.8 °F 35.6 °F 76% 29.21 in 10.0 mi East 17.3 mph 21.9 mph N/A   Overcast
5:36 AM 42.8 °F 34.8 °F 37.4 °F 81% 29.21 in 10.0 mi East 17.3 mph 23.0 mph N/A   Overcast
5:56 AM 42.8 °F 36.2 °F 37.4 °F 81% 29.21 in 10.0 mi ESE 12.7 mph 25.3 mph N/A   Overcast
6:16 AM 42.8 °F 36.2 °F 37.4 °F 81% 29.20 in 10.0 mi ESE 12.7 mph 20.7 mph N/A   Overcast
6:36 AM 39.2 °F 33.0 °F 35.6 °F 87% 29.21 in 10.0 mi SE 9.2 mph - N/A   Overcast
6:56 AM 41.0 °F 34.3 °F 35.6 °F 81% 29.21 in 10.0 mi SSE 11.5 mph - N/A   Overcast
7:16 AM 42.8 °F 35.8 °F 35.6 °F 76% 29.22 in 10.0 mi SE 13.8 mph - N/A   Mostly Cloudy
7:36 AM 42.8 °F 36.2 °F 37.4 °F 81% 29.21 in 10.0 mi ESE 12.7 mph 24.2 mph N/A   Overcast
7:56 AM 42.8 °F 36.2 °F 35.6 °F 76% 29.21 in 10.0 mi ESE 12.7 mph 17.3 mph N/A   Overcast
8:16 AM 42.8 °F 37.0 °F 35.6 °F 76% 29.21 in 10.0 mi SE 10.4 mph 17.3 mph N/A   Overcast
8:36 AM 41.0 °F 35.2 °F 35.6 °F 81% 29.21 in 10.0 mi SE 9.2 mph 16.1 mph N/A   Overcast
8:56 AM 41.0 °F 35.8 °F 35.6 °F 81% 29.22 in 10.0 mi SSE 8.1 mph - N/A   Overcast
9:16 AM 39.2 °F 33.6 °F 33.8 °F 81% 29.21 in 10.0 mi SSE 8.1 mph - N/A   Partly Cloudy
9:36 AM 39.2 °F 34.2 °F 35.6 °F 87% 29.21 in 10.0 mi SSE 6.9 mph - N/A   Mostly Cloudy
9:56 AM 39.2 °F 34.2 °F 35.6 °F 87% 29.21 in 10.0 mi SSE 6.9 mph - N/A   Mostly Cloudy
10:16 AM 37.4 °F 32.8 °F 33.8 °F 87% 29.21 in 10.0 mi South 5.8 mph - N/A   Clear
10:36 AM 39.2 °F 33.6 °F 35.6 °F 87% 29.21 in 10.0 mi SSE 8.1 mph 17.3 mph N/A   Clear
10:56 AM 41.0 °F 36.4 °F 35.6 °F 81% 29.21 in 10.0 mi SE 6.9 mph 16.1 mph N/A   Partly Cloudy
11:16 AM 41.0 °F 35.2 °F 35.6 °F 81% 29.21 in 10.0 mi SE 9.2 mph - N/A   Mostly Cloudy
11:36 AM 41.0 °F 36.4 °F 35.6 °F 81% 29.21 in 10.0 mi SE 6.9 mph - N/A   Overcast
11:56 AM 42.8 °F 38.6 °F 35.6 °F 76% 29.21 in 10.0 mi South 6.9 mph - N/A   Overcast
12:16 PM 41.0 °F - 35.6 °F 81% 29.21 in 10.0 mi Calm Calm - N/A   Mostly Cloudy
12:36 PM 42.8 °F 37.5 °F 35.6 °F 76% 29.21 in 10.0 mi ESE 9.2 mph - N/A   Mostly Cloudy
12:56 PM 42.8 °F 35.4 °F 35.6 °F 76% 29.20 in 10.0 mi East 15.0 mph 19.6 mph N/A   Mostly Cloudy
1:16 PM 42.8 °F 34.8 °F 35.6 °F 76% 29.20 in 10.0 mi East 17.3 mph 20.7 mph N/A   Overcast
1:36 PM 42.8 °F 35.4 °F 35.6 °F 76% 29.21 in 10.0 mi East 15.0 mph 20.7 mph N/A   Mostly Cloudy
1:56 PM 42.8 °F 35.4 °F 37.4 °F 81% 29.21 in 10.0 mi East 15.0 mph 21.9 mph N/A   Overcast
2:16 PM 42.8 °F 36.6 °F 37.4 °F 81% 29.21 in 10.0 mi ESE 11.5 mph 18.4 mph N/A   Overcast
2:36 PM 42.8 °F 36.6 °F 37.4 °F 81% 29.21 in 10.0 mi East 11.5 mph - N/A   Overcast
2:56 PM 42.8 °F 36.6 °F 37.4 °F 81% 29.21 in 10.0 mi East 11.5 mph - N/A   Mostly Cloudy
3:16 PM 44.6 °F 37.8 °F 37.4 °F 76% 29.21 in 10.0 mi ESE 15.0 mph 18.4 mph N/A   Mostly Cloudy
3:36 PM 44.6 °F 38.8 °F 37.4 °F 76% 29.20 in 10.0 mi ESE 11.5 mph - N/A   Mostly Cloudy
3:56 PM 44.6 °F 38.4 °F 37.4 °F 76% 29.20 in 10.0 mi ESE 12.7 mph - N/A   Partly Cloudy
4:16 PM 44.6 °F 40.7 °F 37.4 °F 76% 29.20 in 10.0 mi ESE 6.9 mph - N/A   Clear
4:36 PM 42.8 °F 37.0 °F 37.4 °F 81% 29.19 in 10.0 mi ESE 10.4 mph - N/A   Mostly Cloudy
4:56 PM 42.8 °F 37.0 °F 37.4 °F 81% 29.19 in 10.0 mi ESE 10.4 mph - N/A   Overcast
5:16 PM 42.8 °F 37.0 °F 37.4 °F 81% 29.19 in 10.0 mi ESE 10.4 mph - N/A   Overcast
5:36 PM 42.8 °F 37.5 °F 37.4 °F 81% 29.20 in 10.0 mi ESE 9.2 mph - N/A   Mostly Cloudy
5:56 PM 42.8 °F 38.0 °F 37.4 °F 81% 29.20 in 10.0 mi ESE 8.1 mph - N/A   Partly Cloudy
6:16 PM 42.8 °F 38.0 °F 37.4 °F 81% 29.21 in 10.0 mi SE 8.1 mph - N/A   Mostly Cloudy
6:36 PM 42.8 °F 38.6 °F 35.6 °F 76% 29.21 in 10.0 mi ESE 6.9 mph - N/A   Overcast
6:56 PM 42.8 °F 38.6 °F 35.6 °F 76% 29.22 in 10.0 mi SE 6.9 mph - N/A   Overcast
7:16 PM 41.0 °F 34.3 °F 35.6 °F 81% 29.21 in 10.0 mi ESE 11.5 mph - N/A   Overcast
7:36 PM 41.0 °F 35.2 °F 35.6 °F 81% 29.22 in 10.0 mi East 9.2 mph - N/A   Overcast
7:56 PM 42.8 °F 37.0 °F 35.6 °F 76% 29.22 in 10.0 mi East 10.4 mph - N/A   Overcast
8:16 PM 41.0 °F 36.4 °F 35.6 °F 81% 29.22 in 10.0 mi SE 6.9 mph - N/A   Overcast
8:36 PM 41.0 °F 35.8 °F 35.6 °F 81% 29.23 in 10.0 mi SSE 8.1 mph - N/A   Overcast
8:56 PM 39.2 °F 35.9 °F 35.6 °F 87% 29.24 in 10.0 mi South 4.6 mph - N/A   Mostly Cloudy
9:16 PM 39.2 °F 34.2 °F 35.6 °F 87% 29.24 in 10.0 mi South 6.9 mph - N/A   Overcast
9:36 PM 39.2 °F 35.0 °F 35.6 °F 87% 29.25 in 10.0 mi SSE 5.8 mph - N/A   Overcast
9:56 PM 39.2 °F 33.0 °F 35.6 °F 87% 29.25 in 10.0 mi SSE 9.2 mph - N/A   Overcast
10:16 PM 39.2 °F 32.0 °F 35.6 °F 87% 29.26 in 10.0 mi SE 11.5 mph - N/A   Overcast
10:36 PM 39.2 °F 34.2 °F 35.6 °F 87% 29.26 in 10.0 mi SSE 6.9 mph - N/A   Mostly Cloudy
10:56 PM 39.2 °F 33.6 °F 35.6 °F 87% 29.27 in 10.0 mi SSE 8.1 mph - N/A   Overcast
11:16 PM 39.2 °F 33.0 °F 35.6 °F 87% 29.27 in 10.0 mi SE 9.2 mph - N/A   Overcast
11:36 PM 39.2 °F 34.2 °F 35.6 °F 87% 29.28 in 10.0 mi SE 6.9 mph - N/A   Overcast
11:56 PM 39.2 °F 35.0 °F 35.6 °F 87% 29.28 in 10.0 mi SSE 5.8 mph - N/A   Overcast